Location: Balevo Makhala
(42.3167°N, 23.9333°E)
Time: 02:01:45
(UTC+00:00)

Daily predictions for brighter satellites

Satellite Brightness Start Highest point End
(mag) Time Altitude Azimuth Time Altitude Azimuth Time Altitude Azimuth
Spot 1 4.4 00:00:57 10° N 00:05:58 74° WNW 00:07:25 46° SW
Resurs 1-4 Rocket 4.2 00:04:50 10° NE 00:08:34 19° E 00:12:16 10° SE
USA 276 4.1 00:09:55 19° ESE 00:09:55 19° ESE 00:11:14 10° E
NPP 4.0 00:03:25 10° NNE 00:08:45 58° E 00:11:11 31° SSE
USA 59 Rocket 1.8 00:08:25 13° WNW 00:09:26 14° NW 00:11:15 10° N
Cosmos 2082 Rocket 2.6 00:05:42 10° NW 00:10:59 43° WSW 00:12:04 38° SW
Meteor 2-15 Rocket 4.4 00:04:55 10° N 00:11:04 89° W 00:14:19 30° S
Cosmos 2278 Rocket 4.0 00:09:33 14° W 00:12:47 22° NW 00:17:10 10° N
Cosmos 2228 Rocket 3.5 00:14:33 41° WSW 00:15:18 45° WNW 00:19:30 10° N
USA 234 4.0 00:09:55 10° ENE 00:15:59 40° SE 00:18:56 26° S
Meteor 2-5 Rocket 3.9 00:14:48 37° SW 00:16:55 61° WNW 00:22:40 10° N
SeaSat 1 4.0 00:13:05 10° ESE 00:17:30 35° NE 00:21:56 10° N
COSMOS 2406 3.1 00:11:51 10° NNW 00:17:34 83° WSW 00:21:16 23° SSE
Nadezhda 3 Rocket 4.5 00:14:18 22° SSE 00:18:12 54° E 00:24:15 10° NNE
Cosmos 1908 Rocket 3.5 00:14:13 10° N 00:18:40 86° ENE 00:20:19 39° S
NOSS 3-1 (C) 2.9 00:18:10 42° S 00:19:34 63° ESE 00:24:45 10° NE
CZ-2D R/B 4.1 00:15:31 10° NE 00:19:47 23° E 00:23:59 10° SE
ADEOS II 4.4 00:18:10 10° NE 00:21:23 16° E 00:24:37 10° SE
Cosmos 2366 rocket 4.2 00:17:09 10° NNW 00:23:21 57° W 00:26:13 32° SSW
IDEFIX/ARIANE 42P 2.6 00:20:51 10° N 00:26:06 75° WNW 00:28:20 35° SSW
Cosmos 2218 Rocket 4.1 00:20:08 10° NNW 00:26:23 59° W 00:29:25 31° SSW
Cosmos 1315 Rocket 3.2 00:28:04 10° NNW 00:31:38 39° W 00:31:48 39° WSW
SL-8 R/B 3.6 00:33:29 38° SW 00:35:13 70° SSE 00:39:57 10° ENE
Cosmos 1782 Rocket 3.9 00:31:35 10° N 00:35:59 65° E 00:38:56 20° SSE
SL-4 R/B 3.3 00:37:55 18° SE 00:37:55 18° SE 00:40:06 10° E
Cosmos 1821 Rocket 4.0 00:34:58 10° NNW 00:41:00 61° W 00:44:29 25° SSW
Cosmos 2297 3.7 00:38:08 30° SSW 00:41:08 87° ESE 00:46:55 10° NNE
MSX 4.2 00:40:39 10° N 00:46:14 53° WNW 00:49:20 26° SW
Iridium 82 4.3 00:47:15 42° SE 00:47:52 56° E 00:50:35 10° N
SJ 16-02 3.9 00:51:06 10° ESE 00:52:56 13° E 00:54:46 10° ENE
ACS3 Solar Sail 3.8 00:52:28 10° NW 00:54:34 12° WNW 00:56:40 10° W
Cosmos 1302 Rocket 4.5 00:50:25 10° NNW 00:55:20 41° WSW 00:57:55 25° SSW
BREEZE-M DEB (TANK) 1.8 00:55:04 10° WNW 01:00:00 82° NNE 01:02:28 10° ESE
Cosmos 2369 Rocket 2.4 00:57:17 24° SW 01:00:31 57° WNW 01:06:02 10° NNE
ALOS 2.9 00:57:14 10° NNE 01:01:40 49° E 01:05:28 13° S
Envisat 3.1 00:56:52 10° NNE 01:01:57 74° ESE 01:05:47 18° S
H-2A R/B 4.3 00:59:12 10° SE 01:02:25 28° ENE 01:05:43 10° N
Cosmos 1869 4.4 01:02:09 10° NW 01:04:45 21° W 01:04:55 20° W
USA 290 2.0 01:03:25 10° NNW 01:06:33 89° WSW 01:09:02 15° SSE
H-2A R/B 2.7 01:03:32 10° NNE 01:08:47 54° E 01:13:45 11° S
DMSP B5D2-2 4.0 01:07:59 10° S 01:13:13 79° WSW 01:18:31 10° NNW
Meteor 2-19 Rocket 4.5 01:10:19 18° SSW 01:14:53 68° W 01:20:58 10° N
ATLAS 5 CENTAUR R/B 1.9 01:13:59 21° W 01:15:14 29° NW 01:17:56 10° NNE
Meteor 1-11 4.4 01:16:36 10° S 01:22:02 71° E 01:27:36 10° NNE
Cosmos 1025 Rocket 4.4 01:20:01 10° SSE 01:23:59 37° E 01:27:59 10° NNE
ARIANE 6 FM1 Upper Stage 3.0 01:22:01 20° WSW 01:24:46 57° NW 01:28:51 10° NNE
COSMOS 2455 2.9 01:22:27 17° SSW 01:27:11 84° WNW 01:33:14 10° NNE
Cosmos 371 Rocket 4.3 01:22:43 10° S 01:27:16 44° ESE 01:31:51 10° NNE
ADEOS Rocket 4.2 01:25:21 10° N 01:30:58 30° WNW 01:35:32 13° WSW
Cosmos 1818 3.6 01:29:34 16° SW 01:33:53 78° WNW 01:39:22 10° NNE
Cosmos 1378 Rocket 3.5 01:30:44 11° S 01:34:54 86° ESE 01:39:12 10° N
USA 308 4.5 01:35:30 10° S 01:38:41 23° SE 01:42:00 10° ENE
SL-16 R/B 4.0 01:34:02 10° SE 01:39:43 40° ENE 01:45:24 10° N
SL-24 DEB 4.1 01:36:31 10° S 01:40:52 61° W 01:45:15 10° NNW
USA 276 2.8 01:38:53 13° W 01:41:21 44° NNW 01:44:20 10° NE
Meteor 2-14 Rocket 4.5 01:38:29 10° S 01:44:37 90° W 01:50:49 10° N
Resurs 1-4 Rocket 2.4 01:43:32 10° N 01:48:38 54° WNW 01:53:43 10° SSW
BREEZE-M DEB (TANK) 2.7 01:39:43 10° WNW 01:48:55 83° SSW 01:51:43 10° SE
Cosmos 1269 Rocket 4.1 01:44:26 12° SSW 01:49:18 65° WNW 01:54:34 10° NNE
Cosmos 304 Rocket 3.8 01:45:05 10° SSW 01:49:49 84° ESE 01:54:36 10° NNE
BREEZE-M DEB (TANK) 4.3 01:38:18 10° W 01:50:32 46° NNW 01:54:09 10° ENE
ARGOS 3.6 01:47:45 10° NNE 01:53:05 62° ESE 01:58:24 10° S
SeaSat 1 3.1 01:50:28 10° S 01:54:50 33° WSW 01:59:14 10° NW
NOSS 3-1 (A) 3.1 01:51:10 12° SW 01:55:20 60° NW 02:00:46 10° NNE
Cosmos 1674 Rocket 3.6 01:51:03 10° S 01:55:27 85° W 01:59:54 10° N
H-2A R/B 4.0 01:52:48 10° NE 01:56:22 27° E 01:59:57 10° SSE
USA 234 3.6 01:52:43 10° NE 01:59:09 64° NW 02:05:36 10° WSW
CZ-2D R/B 2.6 01:54:42 10° N 01:59:58 49° WNW 02:05:10 10° SW
Lacrosse 4 Rocket 1.3 01:56:55 10° NNW 02:01:07 73° WSW 02:05:16 10° SSE
ADEOS II 2.2 01:56:11 10° N 02:01:21 63° WNW 02:06:29 10° SSW
Okean 1 Rocket 3.6 01:59:00 10° N 02:03:20 63° E 02:07:37 10° SSE
Cosmos 1140 Rocket 4.2 02:01:53 10° SW 02:06:38 38° WNW 02:11:24 10° N
Cosmos 540 Rocket 3.6 02:04:16 10° NNW 02:09:22 82° ENE 02:14:27 10° SSE
SL-08 RB Rocket 4.4 02:08:58 10° NNE 02:13:29 57° E 02:17:57 10° S
SL-4 R/B 1.9 02:11:49 10° WSW 02:14:51 50° NNW 02:17:54 10° NE
